Location: St. Louis
(38.6270°N, 90.1994°W)
Time: 09:19:20
(UTC-05:00)

Altair - Visible Passes

Search period start: 26 June 2022 00:00
Search period end: 06 July 2022 00:00
Orbit: 1501 x 1682 km, 47.2° (Epoch: 25 June)

Date Brightness Start Highest point End Pass type
(mag) Time Alt. Az. Time Alt. Az. Time Alt. Az.
01 Jul 9.3 04:46:08 10° SSE 04:51:38 18° SE 04:57:08 10° E visible
02 Jul 9.3 04:21:50 10° SSE 04:26:36 15° ESE 04:31:23 10° E visible
03 Jul 9.3 03:57:45 10° SSE 04:01:35 13° ESE 04:05:25 10° E visible
04 Jul 9.4 03:34:06 10° SE 03:36:34 11° ESE 03:39:01 10° ESE visible
05 Jul 8.1 05:05:51 10° SSW 05:14:28 48° SE 05:23:11 10° ENE visible
